Time,TemperatureF,DewpointF,PressureIn,WindDirection,WindDirectionDegrees,WindSpeedMPH,WindSpeedGustMPH,Humidity,HourlyPrecipIn,Conditions,Clouds,dailyrainin,SolarRadiationWatts/m^2,SoftwareType,DateUTC
2013-05-10 00:00:00,58.7,47.4,30.06,East,94,0.0,0.0,66,0.00,,,0.00,0,Wunderground v.1.15,2013-05-10 07:00:00,
2013-05-10 00:10:00,58.0,47.1,30.06,East,98,0.0,0.0,67,0.00,,,0.00,0,Wunderground v.1.15,2013-05-10 07:10:00,
2013-05-10 00:15:00,58.0,47.1,30.06,East,98,0.0,0.0,67,0.00,,,0.00,0,Wunderground v.1.15,2013-05-10 07:15:00,
2013-05-10 00:25:00,58.0,47.1,30.06,East,98,0.0,0.0,67,0.00,,,0.00,0,Wunderground v.1.15,2013-05-10 07:25:00,
2013-05-10 00:35:00,57.5,47.0,30.07,East,98,0.0,0.0,68,0.00,,,0.00,0,Wunderground v.1.15,2013-05-10 07:35:00,
2013-05-10 00:40:00,57.1,46.6,30.07,East,98,0.0,0.0,68,0.00,,,0.00,0,Wunderground v.1.15,2013-05-10 07:40:00,
2013-05-10 00:45:00,57.1,46.6,30.07,East,98,0.0,0.0,68,0.00,,,0.00,0,Wunderground v.1.15,2013-05-10 07:45:00,
2013-05-10 00:50:00,57.2,46.7,30.07,East,98,0.0,0.0,68,0.00,,,0.00,0,Wunderground v.1.15,2013-05-10 07:50:00,
2013-05-10 01:00:00,57.1,46.6,30.07,East,98,0.0,0.0,68,0.00,,,0.00,0,Wunderground v.1.15,2013-05-10 08:00:00,
2013-05-10 01:10:00,57.0,46.5,30.07,East,99,0.0,0.0,68,0.00,,,0.00,0,Wunderground v.1.15,2013-05-10 08:10:00,
2013-05-10 01:15:00,57.0,46.5,30.08,East,99,0.0,0.0,68,0.00,,,0.00,0,Wunderground v.1.15,2013-05-10 08:15:00,
2013-05-10 01:25:00,57.1,46.6,30.08,ESE,103,0.0,0.0,68,0.00,,,0.00,0,Wunderground v.1.15,2013-05-10 08:25:00,
2013-05-10 01:35:00,56.5,46.4,30.08,ESE,107,0.0,0.0,69,0.00,,,0.00,0,Wunderground v.1.15,2013-05-10 08:35:00,
2013-05-10 01:40:00,56.5,46.4,30.08,ESE,107,0.0,0.0,69,0.00,,,0.00,0,Wunderground v.1.15,2013-05-10 08:40:00,
2013-05-10 01:45:00,56.2,46.2,30.08,ESE,107,0.0,0.0,69,0.00,,,0.00,0,Wunderground v.1.15,2013-05-10 08:45:00,
2013-05-10 01:50:00,56.1,46.4,30.08,ESE,107,0.0,0.0,70,0.00,,,0.00,0,Wunderground v.1.15,2013-05-10 08:50:00,
2013-05-10 01:55:00,55.8,46.5,30.08,ESE,107,0.0,0.0,71,0.00,,,0.00,0,Wunderground v.1.15,2013-05-10 08:55:00,
2013-05-10 02:00:00,55.5,46.6,30.08,ESE,107,0.0,0.0,72,0.00,,,0.00,0,Wunderground v.1.15,2013-05-10 09:00:00,
2013-05-10 02:10:00,54.9,46.4,30.09,ESE,108,0.0,0.0,73,0.00,,,0.00,0,Wunderground v.1.15,2013-05-10 09:10:00,
2013-05-10 02:15:00,54.5,46.4,30.08,ESE,108,0.0,0.0,74,0.00,,,0.00,0,Wunderground v.1.15,2013-05-10 09:15:00,
2013-05-10 02:25:00,54.3,45.8,30.08,ESE,108,0.0,0.0,73,0.00,,,0.00,0,Wunderground v.1.15,2013-05-10 09:25:00,
2013-05-10 02:30:00,53.7,45.6,30.09,ESE,123,0.0,0.0,74,0.00,,,0.00,0,Wunderground v.1.15,2013-05-10 09:30:00,
2013-05-10 02:35:00,53.1,45.7,30.08,SE,128,0.0,0.0,76,0.00,,,0.00,0,Wunderground v.1.15,2013-05-10 09:35:00,
2013-05-10 02:45:00,52.7,45.3,30.08,SE,133,0.0,0.0,76,0.00,,,0.00,0,Wunderground v.1.15,2013-05-10 09:45:00,
2013-05-10 02:50:00,52.6,45.2,30.08,SE,141,0.0,0.0,76,0.00,,,0.00,0,Wunderground v.1.15,2013-05-10 09:50:00,
2013-05-10 02:55:00,52.5,45.2,30.08,SE,142,0.0,0.0,76,0.00,,,0.00,0,Wunderground v.1.15,2013-05-10 09:55:00,
2013-05-10 03:00:00,52.4,45.4,30.08,SE,142,0.0,0.0,77,0.00,,,0.00,0,Wunderground v.1.15,2013-05-10 10:00:00,
2013-05-10 03:10:00,52.4,45.1,30.09,SE,143,1.0,1.0,76,0.00,,,0.00,0,Wunderground v.1.15,2013-05-10 10:10:00,
2013-05-10 03:15:00,52.2,45.2,30.08,SE,143,1.0,1.0,77,0.00,,,0.00,0,Wunderground v.1.15,2013-05-10 10:15:00,
2013-05-10 03:25:00,52.6,45.2,30.09,SE,138,0.0,5.0,76,0.00,,,0.00,0,Wunderground v.1.15,2013-05-10 10:25:00,
2013-05-10 03:30:00,53.0,45.3,30.09,SE,137,1.0,1.0,75,0.00,,,0.00,0,Wunderground v.1.15,2013-05-10 10:30:00,
2013-05-10 03:35:00,53.0,45.3,30.09,SE,136,0.0,1.0,75,0.00,,,0.00,0,Wunderground v.1.15,2013-05-10 10:35:00,
2013-05-10 03:40:00,52.9,45.2,30.09,SE,133,0.0,0.0,75,0.00,,,0.00,0,Wunderground v.1.15,2013-05-10 10:40:00,
2013-05-10 03:50:00,52.4,45.1,30.09,SE,138,0.0,0.0,76,0.00,,,0.00,0,Wunderground v.1.15,2013-05-10 10:50:00,
2013-05-10 03:55:00,52.3,45.0,30.09,SE,137,0.0,0.0,76,0.00,,,0.00,0,Wunderground v.1.15,2013-05-10 10:55:00,
2013-05-10 04:00:00,52.4,44.7,30.09,SE,136,0.0,0.0,75,0.00,,,0.00,0,Wunderground v.1.15,2013-05-10 11:00:00,
2013-05-10 04:10:00,52.2,44.9,30.09,SE,136,0.0,0.0,76,0.00,,,0.00,0,Wunderground v.1.15,2013-05-10 11:10:00,
2013-05-10 04:15:00,51.9,44.6,30.09,SSE,147,0.0,0.0,76,0.00,,,0.00,0,Wunderground v.1.15,2013-05-10 11:15:00,
2013-05-10 04:25:00,51.2,44.2,30.09,SSE,148,0.0,4.0,77,0.00,,,0.00,0,Wunderground v.1.15,2013-05-10 11:25:00,
2013-05-10 04:30:00,51.0,44.4,30.10,SSE,155,0.0,1.0,78,0.00,,,0.00,0,Wunderground v.1.15,2013-05-10 11:30:00,
2013-05-10 04:35:00,50.8,44.2,30.09,SSE,155,1.0,4.0,78,0.00,,,0.00,0,Wunderground v.1.15,2013-05-10 11:35:00,
2013-05-10 04:40:00,50.8,44.2,30.10,SSE,152,2.0,6.0,78,0.00,,,0.00,0,Wunderground v.1.15,2013-05-10 11:40:00,
2013-05-10 04:45:00,51.0,44.4,30.09,SE,142,4.0,6.0,78,0.00,,,0.00,0,Wunderground v.1.15,2013-05-10 11:45:00,
2013-05-10 04:50:00,51.4,44.4,30.10,SE,146,4.0,6.0,77,0.00,,,0.00,0,Wunderground v.1.15,2013-05-10 11:50:00,
2013-05-10 05:00:00,50.6,43.7,30.10,SSE,155,2.0,5.0,77,0.00,,,0.00,0,Wunderground v.1.15,2013-05-10 12:00:00,
2013-05-10 05:10:00,49.6,43.4,30.10,SSE,155,2.0,2.0,79,0.00,,,0.00,0,Wunderground v.1.15,2013-05-10 12:10:00,
2013-05-10 05:15:00,49.7,43.5,30.10,SSE,153,1.0,2.0,79,0.00,,,0.00,0,Wunderground v.1.15,2013-05-10 12:15:00,
2013-05-10 05:20:00,49.7,43.5,30.10,SE,144,0.0,2.0,79,0.00,,,0.00,0,Wunderground v.1.15,2013-05-10 12:20:00,
2013-05-10 05:25:00,49.7,43.5,30.09,SE,132,0.0,2.0,79,0.00,,,0.00,0,Wunderground v.1.15,2013-05-10 12:25:00,
2013-05-10 05:35:00,49.9,43.6,30.10,SE,128,0.0,0.0,79,0.00,,,0.00,0,Wunderground v.1.15,2013-05-10 12:35:00,
2013-05-10 05:40:00,50.0,43.4,30.09,SE,128,0.0,0.0,78,0.00,,,0.00,0,Wunderground v.1.15,2013-05-10 12:40:00,
2013-05-10 05:45:00,50.2,43.6,30.09,SE,128,0.0,0.0,78,0.00,,,0.00,5,Wunderground v.1.15,2013-05-10 12:45:00,
2013-05-10 05:50:00,50.4,43.8,30.09,SE,128,0.0,0.0,78,0.00,,,0.00,9,Wunderground v.1.15,2013-05-10 12:50:00,
2013-05-10 05:55:00,50.7,44.1,30.09,SE,128,0.0,0.0,78,0.00,,,0.00,12,Wunderground v.1.15,2013-05-10 12:55:00,
2013-05-10 06:00:00,51.0,44.0,30.09,SE,126,0.0,0.0,77,0.00,,,0.00,14,Wunderground v.1.15,2013-05-10 13:00:00,
2013-05-10 06:10:00,52.3,44.6,30.09,ESE,118,1.0,1.0,75,0.00,,,0.00,26,Wunderground v.1.15,2013-05-10 13:10:00,
2013-05-10 06:15:00,52.6,44.5,30.09,SSE,163,2.0,4.0,74,0.00,,,0.00,32,Wunderground v.1.15,2013-05-10 13:15:00,
2013-05-10 06:20:00,52.7,44.3,30.10,South,177,3.0,3.0,73,0.00,,,0.00,42,Wunderground v.1.15,2013-05-10 13:20:00,
2013-05-10 06:25:00,52.6,44.2,30.10,South,185,4.0,6.0,73,0.00,,,0.00,53,Wunderground v.1.15,2013-05-10 13:25:00,
2013-05-10 06:30:00,52.2,44.2,30.10,SSW,204,5.0,7.0,74,0.00,,,0.00,65,Wunderground v.1.15,2013-05-10 13:30:00,
2013-05-10 06:40:00,51.5,43.8,30.10,South,190,5.0,5.0,75,0.00,,,0.00,91,Wunderground v.1.15,2013-05-10 13:40:00,
2013-05-10 06:45:00,51.9,44.2,30.10,South,178,6.0,6.0,75,0.00,,,0.00,107,Wunderground v.1.15,2013-05-10 13:45:00,
2013-05-10 06:50:00,52.1,44.4,30.10,South,189,6.0,7.0,75,0.00,,,0.00,123,Wunderground v.1.15,2013-05-10 13:50:00,
2013-05-10 06:55:00,52.6,44.9,30.11,South,179,6.0,8.0,75,0.00,,,0.00,137,Wunderground v.1.15,2013-05-10 13:55:00,
2013-05-10 07:00:00,52.9,44.8,30.11,SSE,167,5.0,11.0,74,0.00,,,0.00,158,Wunderground v.1.15,2013-05-10 14:00:00,
2013-05-10 07:10:00,54.3,45.5,30.11,SSE,163,5.0,5.0,72,0.00,,,0.00,192,Wunderground v.1.15,2013-05-10 14:10:00,
2013-05-10 07:15:00,55.2,45.6,30.11,SE,146,4.0,5.0,70,0.00,,,0.00,209,Wunderground v.1.15,2013-05-10 14:15:00,
2013-05-10 07:20:00,56.0,45.2,30.11,ESE,103,2.0,2.0,67,0.00,,,0.00,225,Wunderground v.1.15,2013-05-10 14:20:00,
2013-05-10 07:25:00,56.8,45.6,30.11,SE,146,1.0,2.0,66,0.00,,,0.00,237,Wunderground v.1.15,2013-05-10 14:25:00,
2013-05-10 07:30:00,58.0,45.9,30.11,East,101,0.0,0.0,64,0.00,,,0.00,253,Wunderground v.1.15,2013-05-10 14:30:00,
2013-05-10 07:35:00,58.7,45.7,30.11,SE,126,1.0,1.0,62,0.00,,,0.00,269,Wunderground v.1.15,2013-05-10 14:35:00,
2013-05-10 07:40:00,59.5,46.0,30.11,ESE,103,1.0,1.0,61,0.00,,,0.00,285,Wunderground v.1.15,2013-05-10 14:40:00,
2013-05-10 07:50:00,60.3,45.9,30.11,SE,133,1.0,1.0,59,0.00,,,0.00,315,Wunderground v.1.15,2013-05-10 14:50:00,
2013-05-10 07:55:00,60.8,46.4,30.11,ESE,119,1.0,1.0,59,0.00,,,0.00,330,Wunderground v.1.15,2013-05-10 14:55:00,
2013-05-10 08:00:00,61.6,46.2,30.11,ESE,105,0.0,0.0,57,0.00,,,0.00,345,Wunderground v.1.15,2013-05-10 15:00:00,
2013-05-10 08:10:00,62.3,46.4,30.11,ESE,107,1.0,1.0,56,0.00,,,0.00,371,Wunderground v.1.15,2013-05-10 15:10:00,
2013-05-10 08:15:00,62.9,46.0,30.11,SSE,163,1.0,1.0,54,0.00,,,0.00,388,Wunderground v.1.15,2013-05-10 15:15:00,
2013-05-10 08:20:00,63.7,46.7,30.11,SE,128,1.0,1.0,54,0.00,,,0.00,403,Wunderground v.1.15,2013-05-10 15:20:00,
2013-05-10 08:25:00,64.2,46.7,30.11,ENE,68,1.0,1.0,53,0.00,,,0.00,418,Wunderground v.1.15,2013-05-10 15:25:00,
2013-05-10 08:30:00,64.3,46.8,30.11,SE,130,1.0,1.0,53,0.00,,,0.00,432,Wunderground v.1.15,2013-05-10 15:30:00,
2013-05-10 08:35:00,64.7,46.7,30.11,SE,134,1.0,1.0,52,0.00,,,0.00,445,Wunderground v.1.15,2013-05-10 15:35:00,
2013-05-10 08:40:00,65.4,47.3,30.11,SE,145,0.0,0.0,52,0.00,,,0.00,461,Wunderground v.1.15,2013-05-10 15:40:00,
2013-05-10 08:45:00,65.2,47.1,30.11,SE,146,2.0,2.0,52,0.00,,,0.00,475,Wunderground v.1.15,2013-05-10 15:45:00,
2013-05-10 08:50:00,65.9,47.8,30.11,SSE,147,2.0,4.0,52,0.00,,,0.00,487,Wunderground v.1.15,2013-05-10 15:50:00,
2013-05-10 08:55:00,66.2,48.0,30.11,SE,146,1.0,4.0,52,0.00,,,0.00,503,Wunderground v.1.15,2013-05-10 15:55:00,
2013-05-10 09:00:00,67.2,47.9,30.11,ESE,108,1.0,1.0,50,0.00,,,0.00,517,Wunderground v.1.15,2013-05-10 16:00:00,
2013-05-10 09:10:00,68.7,48.8,30.11,ESE,110,0.0,0.0,49,0.00,,,0.00,540,Wunderground v.1.15,2013-05-10 16:10:00,
2013-05-10 09:15:00,69.3,48.8,30.11,East,88,0.0,0.0,48,0.00,,,0.00,557,Wunderground v.1.15,2013-05-10 16:15:00,
2013-05-10 09:20:00,69.5,48.9,30.11,SSE,157,0.0,0.0,48,0.00,,,0.00,570,Wunderground v.1.15,2013-05-10 16:20:00,
2013-05-10 09:30:00,70.5,48.7,30.10,East,85,0.0,0.0,46,0.00,,,0.00,598,Wunderground v.1.15,2013-05-10 16:30:00,
2013-05-10 09:35:00,71.1,49.3,30.10,East,82,0.0,0.0,46,0.00,,,0.00,610,Wunderground v.1.15,2013-05-10 16:35:00,
2013-05-10 09:40:00,71.7,49.2,30.10,SE,146,0.0,0.0,45,0.00,,,0.00,624,Wunderground v.1.15,2013-05-10 16:40:00,
2013-05-10 09:45:00,72.4,49.3,30.10,ESE,111,0.0,0.0,44,0.00,,,0.00,636,Wunderground v.1.15,2013-05-10 16:45:00,
2013-05-10 09:50:00,73.1,49.3,30.10,SE,126,0.0,0.0,43,0.00,,,0.00,650,Wunderground v.1.15,2013-05-10 16:50:00,
2013-05-10 09:55:00,73.5,49.6,30.10,SE,138,0.0,0.0,43,0.00,,,0.00,659,Wunderground v.1.15,2013-05-10 16:55:00,
2013-05-10 10:00:00,74.2,49.6,30.10,SSE,163,0.0,0.0,42,0.00,,,0.00,673,Wunderground v.1.15,2013-05-10 17:00:00,
2013-05-10 10:10:00,75.4,49.4,30.09,SSE,163,0.0,0.0,40,0.00,,,0.00,698,Wunderground v.1.15,2013-05-10 17:10:00,
2013-05-10 10:15:00,76.1,49.3,30.09,SE,132,0.0,0.0,39,0.00,,,0.00,707,Wunderground v.1.15,2013-05-10 17:15:00,
2013-05-10 10:20:00,76.2,49.4,30.09,ESE,123,0.0,0.0,39,0.00,,,0.00,719,Wunderground v.1.15,2013-05-10 17:20:00,
2013-05-10 10:25:00,76.7,49.9,30.09,SSE,167,0.0,0.0,39,0.00,,,0.00,729,Wunderground v.1.15,2013-05-10 17:25:00,
2013-05-10 10:30:00,77.1,48.8,30.09,SE,143,0.0,0.0,37,0.00,,,0.00,738,Wunderground v.1.15,2013-05-10 17:30:00,
2013-05-10 10:35:00,77.5,49.2,30.09,SE,138,0.0,0.0,37,0.00,,,0.00,752,Wunderground v.1.15,2013-05-10 17:35:00,
2013-05-10 10:40:00,78.0,49.6,30.09,East,80,0.0,0.0,37,0.00,,,0.00,761,Wunderground v.1.15,2013-05-10 17:40:00,
2013-05-10 10:45:00,79.9,49.8,30.09,East,80,0.0,0.0,35,0.00,,,0.00,768,Wunderground v.1.15,2013-05-10 17:45:00,
2013-05-10 10:50:00,79.9,49.8,30.09,East,80,0.0,0.0,35,0.00,,,0.00,777,Wunderground v.1.15,2013-05-10 17:50:00,
2013-05-10 11:00:00,78.7,48.0,30.09,SE,134,0.0,0.0,34,0.00,,,0.00,795,Wunderground v.1.15,2013-05-10 18:00:00,
2013-05-10 11:10:00,79.2,46.8,30.08,South,175,0.0,0.0,32,0.00,,,0.00,816,Wunderground v.1.15,2013-05-10 18:10:00,
2013-05-10 11:15:00,81.1,48.4,30.08,SE,127,0.0,0.0,32,0.00,,,0.00,824,Wunderground v.1.15,2013-05-10 18:15:00,
2013-05-10 11:20:00,81.6,47.2,30.08,ESE,117,0.0,0.0,30,0.00,,,0.00,833,Wunderground v.1.15,2013-05-10 18:20:00,
2013-05-10 11:25:00,80.6,46.3,30.08,ENE,61,0.0,0.0,30,0.00,,,0.00,844,Wunderground v.1.15,2013-05-10 18:25:00,
2013-05-10 11:30:00,82.4,47.8,30.08,SSE,161,0.0,1.0,30,0.00,,,0.00,847,Wunderground v.1.15,2013-05-10 18:30:00,
2013-05-10 11:35:00,82.2,46.8,30.08,East,89,0.0,1.0,29,0.00,,,0.00,846,Wunderground v.1.15,2013-05-10 18:35:00,
2013-05-10 11:45:00,82.3,46.9,30.08,SSE,155,0.0,0.0,29,0.00,,,0.00,842,Wunderground v.1.15,2013-05-10 18:45:00,
2013-05-10 11:50:00,82.0,44.7,30.08,South,173,0.0,0.0,27,0.00,,,0.00,846,Wunderground v.1.15,2013-05-10 18:50:00,
2013-05-10 12:00:00,83.9,44.3,30.07,ENE,69,2.0,3.0,25,0.00,,,0.00,884,Wunderground v.1.15,2013-05-10 19:00:00,
2013-05-10 12:10:00,84.9,44.1,30.07,East,84,1.0,1.0,24,0.00,,,0.00,891,Wunderground v.1.15,2013-05-10 19:10:00,
2013-05-10 12:20:00,82.6,44.2,30.06,WNW,295,1.0,4.0,26,0.00,,,0.00,898,Wunderground v.1.15,2013-05-10 19:20:00,
2013-05-10 12:25:00,82.6,44.2,30.06,ENE,65,2.0,4.0,26,0.00,,,0.00,819,Wunderground v.1.15,2013-05-10 19:25:00,
2013-05-10 12:30:00,83.0,44.6,30.06,South,188,2.0,2.0,26,0.00,,,0.00,895,Wunderground v.1.15,2013-05-10 19:30:00,
2013-05-10 12:35:00,84.5,44.8,30.06,ENE,62,2.0,2.0,25,0.00,,,0.00,888,Wunderground v.1.15,2013-05-10 19:35:00,
2013-05-10 12:40:00,84.5,46.8,30.05,ENE,68,1.0,1.0,27,0.00,,,0.00,888,Wunderground v.1.15,2013-05-10 19:40:00,
2013-05-10 12:50:00,85.4,46.6,30.05,North,5,1.0,1.0,26,0.00,,,0.00,886,Wunderground v.1.15,2013-05-10 19:50:00,
2013-05-10 13:00:00,84.9,45.1,30.05,SSE,165,3.0,3.0,25,0.00,,,0.00,916,Wunderground v.1.15,2013-05-10 20:00:00,
2013-05-10 13:10:00,85.7,45.8,30.04,SE,140,2.0,5.0,25,0.00,,,0.00,935,Wunderground v.1.15,2013-05-10 20:10:00,
2013-05-10 13:15:00,84.5,44.8,30.04,NNE,16,3.0,5.0,25,0.00,,,0.00,953,Wunderground v.1.15,2013-05-10 20:15:00,
2013-05-10 13:20:00,84.9,45.1,30.03,East,80,3.0,10.0,25,0.00,,,0.00,895,Wunderground v.1.15,2013-05-10 20:20:00,
2013-05-10 13:30:00,82.8,43.4,30.04,NNE,15,2.0,2.0,25,0.00,,,0.00,214,Wunderground v.1.15,2013-05-10 20:30:00,
2013-05-10 13:40:00,84.1,44.5,30.03,West,277,1.0,4.0,25,0.00,,,0.00,963,Wunderground v.1.15,2013-05-10 20:40:00,
2013-05-10 13:45:00,85.0,44.2,30.03,WSW,250,2.0,4.0,24,0.00,,,0.00,1018,Wunderground v.1.15,2013-05-10 20:45:00,
2013-05-10 13:50:00,84.2,44.6,30.03,WNW,297,3.0,3.0,25,0.00,,,0.00,258,Wunderground v.1.15,2013-05-10 20:50:00,
2013-05-10 13:55:00,84.9,45.1,30.03,NW,311,1.0,3.0,25,0.00,,,0.00,1020,Wunderground v.1.15,2013-05-10 20:55:00,
2013-05-10 14:00:00,86.3,45.3,30.03,SW,214,1.0,2.0,24,0.00,,,0.00,1007,Wunderground v.1.15,2013-05-10 21:00:00,
2013-05-10 14:10:00,86.6,43.2,30.03,West,259,3.0,3.0,22,0.00,,,0.00,956,Wunderground v.1.15,2013-05-10 21:10:00,
2013-05-10 14:15:00,88.3,43.4,30.03,SE,130,1.0,7.0,21,0.00,,,0.00,947,Wunderground v.1.15,2013-05-10 21:15:00,
2013-05-10 14:20:00,86.5,43.1,30.02,ENE,60,1.0,1.0,22,0.00,,,0.00,925,Wunderground v.1.15,2013-05-10 21:20:00,
2013-05-10 14:25:00,88.9,45.1,30.02,SE,128,1.0,1.0,22,0.00,,,0.00,914,Wunderground v.1.15,2013-05-10 21:25:00,
2013-05-10 14:35:00,88.3,42.1,30.02,East,82,2.0,4.0,20,0.00,,,0.00,962,Wunderground v.1.15,2013-05-10 21:35:00,
2013-05-10 14:45:00,86.9,41.0,30.02,NE,45,2.0,5.0,20,0.00,,,0.00,246,Wunderground v.1.15,2013-05-10 21:45:00,
2013-05-10 14:50:00,85.0,40.7,30.02,NE,45,2.0,2.0,21,0.00,,,0.00,248,Wunderground v.1.15,2013-05-10 21:50:00,
2013-05-10 14:55:00,85.4,42.2,30.02,NE,36,0.0,2.0,22,0.00,,,0.00,313,Wunderground v.1.15,2013-05-10 21:55:00,
2013-05-10 15:00:00,86.5,43.1,30.02,NE,37,0.0,0.0,22,0.00,,,0.00,302,Wunderground v.1.15,2013-05-10 22:00:00,
2013-05-10 15:05:00,87.2,42.5,30.02,WSW,237,2.0,3.0,21,0.00,,,0.00,930,Wunderground v.1.15,2013-05-10 22:05:00,
2013-05-10 15:10:00,86.3,41.8,30.02,SW,223,4.0,4.0,21,0.00,,,0.00,274,Wunderground v.1.15,2013-05-10 22:10:00,
2013-05-10 15:15:00,86.0,42.7,30.01,SW,220,3.0,5.0,22,0.00,,,0.00,318,Wunderground v.1.15,2013-05-10 22:15:00,
2013-05-10 15:20:00,87.2,42.5,30.01,SW,235,3.0,5.0,21,0.00,,,0.00,907,Wunderground v.1.15,2013-05-10 22:20:00,
2013-05-10 15:30:00,86.3,41.8,30.01,SE,146,1.0,1.0,21,0.00,,,0.00,248,Wunderground v.1.15,2013-05-10 22:30:00,
2013-05-10 15:35:00,85.4,42.2,30.01,ENE,65,0.0,1.0,22,0.00,,,0.00,221,Wunderground v.1.15,2013-05-10 22:35:00,
2013-05-10 15:40:00,86.4,41.8,30.01,WNW,282,1.0,4.0,21,0.00,,,0.00,230,Wunderground v.1.15,2013-05-10 22:40:00,
2013-05-10 15:45:00,85.6,42.4,30.01,West,273,2.0,4.0,22,0.00,,,0.00,239,Wunderground v.1.15,2013-05-10 22:45:00,
2013-05-10 15:50:00,85.1,42.0,30.01,West,273,2.0,2.0,22,0.00,,,0.00,325,Wunderground v.1.15,2013-05-10 22:50:00,
2013-05-10 15:55:00,85.8,41.3,30.00,SSW,193,1.0,2.0,21,0.00,,,0.00,561,Wunderground v.1.15,2013-05-10 22:55:00,
2013-05-10 16:00:00,86.0,42.7,30.00,South,173,2.0,2.0,22,0.00,,,0.00,371,Wunderground v.1.15,2013-05-10 23:00:00,
2013-05-10 16:10:00,89.0,42.7,30.00,East,80,2.0,7.0,20,0.00,,,0.00,860,Wunderground v.1.15,2013-05-10 23:10:00,
2013-05-10 16:15:00,88.1,43.2,30.00,ESE,121,3.0,7.0,21,0.00,,,0.00,292,Wunderground v.1.15,2013-05-10 23:15:00,
2013-05-10 16:25:00,86.1,42.8,30.00,ESE,118,3.0,4.0,22,0.00,,,0.00,206,Wunderground v.1.15,2013-05-10 23:25:00,
2013-05-10 16:30:00,85.4,42.2,30.00,SE,135,1.0,1.0,22,0.00,,,0.00,197,Wunderground v.1.15,2013-05-10 23:30:00,
2013-05-10 16:35:00,85.1,42.0,30.00,SSE,150,1.0,4.0,22,0.00,,,0.00,285,Wunderground v.1.15,2013-05-10 23:35:00,
2013-05-10 16:40:00,86.1,42.8,30.00,SSE,168,1.0,4.0,22,0.00,,,0.00,548,Wunderground v.1.15,2013-05-10 23:40:00,
2013-05-10 16:45:00,86.3,41.8,30.00,South,191,2.0,4.0,21,0.00,,,0.00,585,Wunderground v.1.15,2013-05-10 23:45:00,
2013-05-10 16:55:00,86.5,41.9,30.00,South,190,1.0,3.0,21,0.00,,,0.00,239,Wunderground v.1.15,2013-05-10 23:55:00,
2013-05-10 17:00:00,85.5,42.3,30.00,SSW,205,0.0,4.0,22,0.00,,,0.00,239,Wunderground v.1.15,2013-05-11 00:00:00,
2013-05-10 17:10:00,84.7,43.9,30.00,WNW,297,5.0,8.0,24,0.00,,,0.00,149,Wunderground v.1.15,2013-05-11 00:10:00,
2013-05-10 17:15:00,84.5,43.7,30.00,WNW,301,5.0,8.0,24,0.00,,,0.00,316,Wunderground v.1.15,2013-05-11 00:15:00,
2013-05-10 17:20:00,84.7,43.9,30.00,SW,228,5.0,9.0,24,0.00,,,0.00,183,Wunderground v.1.15,2013-05-11 00:20:00,
2013-05-10 17:30:00,83.8,45.3,30.00,SW,219,7.0,7.0,26,0.00,,,0.00,172,Wunderground v.1.15,2013-05-11 00:30:00,
2013-05-10 17:35:00,83.3,45.8,30.00,WSW,237,7.0,7.0,27,0.00,,,0.00,162,Wunderground v.1.15,2013-05-11 00:35:00,
2013-05-10 17:40:00,83.3,47.7,30.00,WSW,240,6.0,11.0,29,0.00,,,0.00,130,Wunderground v.1.15,2013-05-11 00:40:00,
2013-05-10 17:45:00,82.9,47.4,30.01,WSW,244,7.0,11.0,29,0.00,,,0.00,116,Wunderground v.1.15,2013-05-11 00:45:00,
2013-05-10 17:50:00,82.5,47.0,30.01,SSW,211,8.0,8.0,29,0.00,,,0.00,93,Wunderground v.1.15,2013-05-11 00:50:00,
2013-05-10 18:00:00,79.9,47.4,30.02,SSW,196,7.0,8.0,32,0.00,,,0.00,65,Wunderground v.1.15,2013-05-11 01:00:00,
2013-05-10 18:10:00,78.2,48.3,30.03,South,174,9.0,9.0,35,0.00,,,0.00,54,Wunderground v.1.15,2013-05-11 01:10:00,
2013-05-10 18:15:00,76.7,49.2,30.02,South,183,9.0,9.0,38,0.00,,,0.00,54,Wunderground v.1.15,2013-05-11 01:15:00,
2013-05-10 18:20:00,75.7,50.3,30.02,South,186,9.0,9.0,41,0.00,,,0.00,47,Wunderground v.1.15,2013-05-11 01:20:00,
2013-05-10 18:25:00,74.8,52.6,30.03,South,185,9.0,9.0,46,0.00,,,0.00,42,Wunderground v.1.15,2013-05-11 01:25:00,
2013-05-10 18:35:00,71.3,52.8,30.03,South,189,7.0,8.0,52,0.00,,,0.00,40,Wunderground v.1.15,2013-05-11 01:35:00,
2013-05-10 18:40:00,71.2,53.2,30.03,South,170,6.0,6.0,53,0.00,,,0.00,35,Wunderground v.1.15,2013-05-11 01:40:00,
2013-05-10 18:45:00,71.0,52.0,30.03,South,171,5.0,7.0,51,0.00,,,0.00,30,Wunderground v.1.15,2013-05-11 01:45:00,
2013-05-10 18:50:00,72.0,51.8,30.03,SSW,196,7.0,7.0,49,0.00,,,0.00,26,Wunderground v.1.15,2013-05-11 01:50:00,
2013-05-10 18:55:00,72.6,50.6,30.03,SSW,200,6.0,10.0,46,0.00,,,0.00,25,Wunderground v.1.15,2013-05-11 01:55:00,
2013-05-10 19:05:00,74.0,47.5,30.04,SSW,195,3.0,4.0,39,0.00,,,0.00,23,Wunderground v.1.15,2013-05-11 02:05:00,
2013-05-10 19:10:00,74.4,47.1,30.04,SSW,201,5.0,5.0,38,0.00,,,0.00,21,Wunderground v.1.15,2013-05-11 02:10:00,
2013-05-10 19:15:00,74.8,46.8,30.03,SSW,195,5.0,5.0,37,0.00,,,0.00,19,Wunderground v.1.15,2013-05-11 02:15:00,
2013-05-10 19:20:00,74.8,48.9,30.03,SSW,197,2.0,2.0,40,0.00,,,0.00,19,Wunderground v.1.15,2013-05-11 02:20:00,
2013-05-10 19:25:00,74.7,48.8,30.03,SSW,213,0.0,2.0,40,0.00,,,0.00,19,Wunderground v.1.15,2013-05-11 02:25:00,
2013-05-10 19:30:00,74.0,50.7,30.04,South,180,1.0,1.0,44,0.00,,,0.00,23,Wunderground v.1.15,2013-05-11 02:30:00,
2013-05-10 19:35:00,72.9,48.5,30.04,South,175,1.0,2.0,42,0.00,,,0.00,37,Wunderground v.1.15,2013-05-11 02:35:00,
2013-05-10 19:45:00,75.8,43.8,30.04,ENE,64,4.0,4.0,32,0.00,,,0.00,47,Wunderground v.1.15,2013-05-11 02:45:00,
2013-05-10 19:50:00,76.6,46.9,30.03,North,355,9.0,20.0,35,0.00,,,0.00,37,Wunderground v.1.15,2013-05-11 02:50:00,
2013-05-10 19:55:00,77.4,44.4,30.02,NE,48,8.0,20.0,31,0.00,,,0.00,32,Wunderground v.1.15,2013-05-11 02:55:00,
2013-05-10 20:05:00,76.5,49.0,30.03,SSW,209,2.0,3.0,38,0.00,,,0.00,21,Wunderground v.1.15,2013-05-11 03:05:00,
2013-05-10 20:10:00,74.6,48.7,30.04,SW,215,2.0,2.0,40,0.00,,,0.00,14,Wunderground v.1.15,2013-05-11 03:10:00,
2013-05-10 20:20:00,72.8,49.0,30.04,SW,215,0.0,0.0,43,0.00,,,0.00,5,Wunderground v.1.15,2013-05-11 03:20:00,
2013-05-10 20:25:00,72.4,48.0,30.04,SW,215,0.0,0.0,42,0.00,,,0.00,0,Wunderground v.1.15,2013-05-11 03:25:00,
2013-05-10 20:30:00,72.1,49.0,30.04,SW,214,0.0,0.0,44,0.00,,,0.00,0,Wunderground v.1.15,2013-05-11 03:30:00,
2013-05-10 20:35:00,71.8,49.3,30.05,SW,215,0.0,0.0,45,0.00,,,0.00,0,Wunderground v.1.15,2013-05-11 03:35:00,
2013-05-10 20:40:00,71.5,50.2,30.05,SW,214,0.0,0.0,47,0.00,,,0.00,0,Wunderground v.1.15,2013-05-11 03:40:00,
2013-05-10 20:45:00,71.1,51.5,30.05,SSW,209,0.0,1.0,50,0.00,,,0.00,0,Wunderground v.1.15,2013-05-11 03:45:00,
2013-05-10 20:50:00,71.0,52.0,30.06,SSW,209,0.0,0.0,51,0.00,,,0.00,0,Wunderground v.1.15,2013-05-11 03:50:00,
2013-05-10 20:55:00,70.8,51.8,30.06,SSW,207,0.0,0.0,51,0.00,,,0.00,0,Wunderground v.1.15,2013-05-11 03:55:00,
2013-05-10 21:05:00,70.6,52.1,30.06,SSW,211,1.0,2.0,52,0.00,,,0.00,0,Wunderground v.1.15,2013-05-11 04:05:00,
2013-05-10 21:10:00,70.4,51.9,30.06,SSW,211,1.0,2.0,52,0.00,,,0.00,0,Wunderground v.1.15,2013-05-11 04:10:00,
2013-05-10 21:15:00,70.2,51.7,30.07,SSW,211,1.0,2.0,52,0.00,,,0.00,0,Wunderground v.1.15,2013-05-11 04:15:00,
2013-05-10 21:20:00,70.2,51.7,30.07,SSW,211,0.0,0.0,52,0.00,,,0.00,0,Wunderground v.1.15,2013-05-11 04:20:00,
2013-05-10 21:25:00,69.9,51.5,30.07,SSW,211,0.0,0.0,52,0.00,,,0.00,0,Wunderground v.1.15,2013-05-11 04:25:00,
2013-05-10 21:30:00,69.6,51.7,30.07,SSW,211,0.0,0.0,53,0.00,,,0.00,0,Wunderground v.1.15,2013-05-11 04:30:00,
2013-05-10 21:35:00,69.7,51.3,30.07,SSW,210,0.0,2.0,52,0.00,,,0.00,0,Wunderground v.1.15,2013-05-11 04:35:00,
2013-05-10 21:40:00,69.5,51.6,30.07,SSW,210,1.0,1.0,53,0.00,,,0.00,0,Wunderground v.1.15,2013-05-11 04:40:00,
2013-05-10 21:45:00,69.3,51.4,30.08,SSW,210,0.0,1.0,53,0.00,,,0.00,0,Wunderground v.1.15,2013-05-11 04:45:00,
2013-05-10 21:55:00,68.3,51.5,30.08,SSW,210,0.0,0.0,55,0.00,,,0.00,0,Wunderground v.1.15,2013-05-11 04:55:00,
2013-05-10 22:05:00,69.7,51.8,30.08,SSW,210,0.0,0.0,53,0.00,,,0.00,0,Wunderground v.1.15,2013-05-11 05:05:00,
2013-05-10 22:10:00,69.6,51.7,30.08,SSW,210,0.0,0.0,53,0.00,,,0.00,0,Wunderground v.1.15,2013-05-11 05:10:00,
2013-05-10 22:15:00,69.1,51.8,30.08,SSW,210,0.0,0.0,54,0.00,,,0.00,0,Wunderground v.1.15,2013-05-11 05:15:00,
2013-05-10 22:20:00,68.8,52.0,30.08,SSW,210,0.0,0.0,55,0.00,,,0.00,0,Wunderground v.1.15,2013-05-11 05:20:00,
2013-05-10 22:25:00,68.3,51.0,30.08,SSW,210,0.0,0.0,54,0.00,,,0.00,0,Wunderground v.1.15,2013-05-11 05:25:00,
2013-05-10 22:30:00,67.9,51.6,30.08,SSW,210,0.0,0.0,56,0.00,,,0.00,0,Wunderground v.1.15,2013-05-11 05:30:00,
2013-05-10 22:35:00,67.6,50.9,30.09,SSW,210,0.0,0.0,55,0.00,,,0.00,0,Wunderground v.1.15,2013-05-11 05:35:00,
2013-05-10 22:40:00,67.3,50.6,30.09,SSW,210,0.0,0.0,55,0.00,,,0.00,0,Wunderground v.1.15,2013-05-11 05:40:00,
2013-05-10 22:50:00,68.1,50.3,30.09,SSW,210,0.0,0.0,53,0.00,,,0.00,0,Wunderground v.1.15,2013-05-11 05:50:00,
2013-05-10 22:55:00,67.2,50.5,30.09,SSW,210,0.0,0.0,55,0.00,,,0.00,0,Wunderground v.1.15,2013-05-11 05:55:00,
2013-05-10 23:00:00,67.4,50.7,30.09,SSW,209,0.0,0.0,55,0.00,,,0.00,0,Wunderground v.1.15,2013-05-11 06:00:00,
2013-05-10 23:10:00,67.6,50.4,30.09,South,172,0.0,0.0,54,0.00,,,0.00,0,Wunderground v.1.15,2013-05-11 06:10:00,
2013-05-10 23:15:00,68.4,50.6,30.09,South,172,0.0,0.0,53,0.00,,,0.00,0,Wunderground v.1.15,2013-05-11 06:15:00,
2013-05-10 23:20:00,67.0,50.3,30.09,South,172,0.0,0.0,55,0.00,,,0.00,0,Wunderground v.1.15,2013-05-11 06:20:00,
2013-05-10 23:25:00,65.6,50.4,30.09,South,172,0.0,0.0,58,0.00,,,0.00,0,Wunderground v.1.15,2013-05-11 06:25:00,
2013-05-10 23:30:00,65.3,51.1,30.09,South,172,0.0,0.0,60,0.00,,,0.00,0,Wunderground v.1.15,2013-05-11 06:30:00,
2013-05-10 23:40:00,65.6,50.9,30.09,South,172,0.0,0.0,59,0.00,,,0.00,0,Wunderground v.1.15,2013-05-11 06:40:00,
2013-05-10 23:50:00,64.8,50.1,30.09,South,172,0.0,0.0,59,0.00,,,0.00,0,Wunderground v.1.15,2013-05-11 06:50:00,
2013-05-10 23:55:00,65.3,50.1,30.09,South,172,0.0,0.0,58,0.00,,,0.00,0,Wunderground v.1.15,2013-05-11 06:55:00,